This is the latest recevied weather packets stored in our database for station/object N4CRH-13. If no packets are shown the sender has not sent any weather packets the latest 10 day(s).
| Time | Temp. | Humidity | Pressure | Rain* | Wind** | Luminosity | Snow |
|---|---|---|---|---|---|---|---|
| 1777923627 | 16.67° C | 31% | 1287.8 hPa | 0 mm | - | 807 W/m² | - |
| 1777923324 | 16.67° C | 32% | 1287.5 hPa | 0 mm | - | 229 W/m² | - |
| 1777923023 | 16.67° C | 30% | 1287.9 hPa | 0 mm | - | 187 W/m² | - |
| 1777922721 | 17.78° C | 22% | 1287.3 hPa | 0 mm | - | 218 W/m² | - |
| 1777922419 | 18.33° C | 21% | 1287.2 hPa | 0 mm | - | 274 W/m² | - |
| 1777922116 | 18.89° C | 24% | 1287.3 hPa | 0 mm | - | 319 W/m² | - |
| 1777921812 | 18.89° C | 22% | 1287.5 hPa | 0 mm | - | 865 W/m² | - |
| 1777921508 | 18.89° C | 30% | 1287.4 hPa | 0 mm | - | 836 W/m² | - |
| 1777921204 | 17.22° C | 27% | 1287.3 hPa | 0 mm | - | 569 W/m² | - |
| 1777920902 | 17.22° C | 27% | 1287.4 hPa | 0 mm | - | 224 W/m² | - |
| 1777920598 | 17.78° C | 26% | 1287.5 hPa | 0 mm | - | 208 W/m² | - |
| 1777920293 | 17.78° C | 28% | 1287.4 hPa | 0 mm | - | 269 W/m² | - |
| 1777919989 | 18.33° C | 25% | 1287.6 hPa | 0 mm | - | 224 W/m² | - |
| 1777919687 | 18.33° C | 23% | 1287.8 hPa | 0 mm | - | 657 W/m² | - |
| 1777919384 | 18.33° C | 21% | 1287.6 hPa | 0 mm | - | 295 W/m² | - |
| 1777919081 | 18.89° C | 22% | 1287.4 hPa | 0 mm | - | 925 W/m² | - |
| 1777918779 | 18.89° C | 24% | 1287.9 hPa | 0 mm | - | 921 W/m² | - |
| 1777918475 | 18.33° C | 23% | 1288 hPa | 0 mm | - | 763 W/m² | - |
| 1777918174 | 18.33° C | 23% | 1287.9 hPa | 0 mm | - | 660 W/m² | - |
| 1777917873 | 18.33° C | 23% | 1288 hPa | 0 mm | - | 641 W/m² | - |
| 1777917570 | 17.78° C | 25% | 1288 hPa | 0 mm | - | 818 W/m² | - |
| 1777917267 | 17.78° C | 24% | 1288.1 hPa | 0 mm | - | 439 W/m² | - |
| 1777916965 | 18.33° C | 25% | 1288.1 hPa | 0 mm | - | 308 W/m² | - |
| 1777916662 | 17.78° C | 25% | 1288.3 hPa | 0 mm | - | 527 W/m² | - |
| 1777916360 | 18.33° C | 29% | 1288.6 hPa | 0 mm | - | 663 W/m² | - |
* Rain latest hour (hover to see other rain measurements)
** Current wind speed in m/s (hover to see current wind gust speed)